| time (UTC) | temp F | wind direction | speed MPH | gust MPH | rain 1hr in | rain 24hr in | rain mn in | humidity % | barometer mb |
| 20260505221824 | 51 | 40 | 0.0 | 0.0 | 0.00 | 0.76 | 0.76 | 84 | 1012.3 |
| 20260505221321 | 51 | 39 | 0.0 | 0.0 | 0.00 | 0.76 | 0.76 | 86 | 1012.0 |
| 20260505220818 | 51 | 32 | 0.0 | 0.0 | 0.00 | 0.76 | 0.76 | 86 | 1012.0 |
| 20260505220315 | 50 | 32 | 0.0 | 0.0 | 0.00 | 0.76 | 0.76 | 86 | 1011.6 |
| 20260505215813 | 50 | 31 | 0.0 | 0.0 | 0.00 | 0.76 | 0.76 | 85 | 1011.9 |
| 20260505215311 | 51 | 16 | 1.0 | 2.0 | 0.00 | 0.76 | 0.76 | 84 | 1012.0 |
| 20260505214808 | 50 | 29 | 0.0 | 0.0 | 0.00 | 0.76 | 0.76 | 84 | 1012.0 |
| 20260505214306 | 50 | 27 | 0.0 | 2.0 | 0.00 | 0.76 | 0.76 | 84 | 1011.9 |
| 20260505213803 | 50 | 32 | 2.0 | 2.0 | 0.00 | 0.76 | 0.76 | 85 | 1011.9 |
| 20260505213301 | 49 | 35 | 0.0 | 3.0 | 0.00 | 0.76 | 0.76 | 86 | 1012.2 |
| 20260505212755 | 49 | 73 | 0.0 | 0.0 | 0.00 | 0.76 | 0.76 | 88 | 1011.9 |
| 20260505212253 | 50 | 74 | 0.0 | 2.0 | 0.00 | 0.76 | 0.76 | 89 | 1012.2 |
| 20260505211750 | 50 | 43 | 0.0 | 0.0 | 0.00 | 0.76 | 0.76 | 88 | 1012.4 |
| 20260505211248 | 49 | 38 | 0.0 | 1.0 | 0.00 | 0.76 | 0.76 | 88 | 1012.2 |
| 20260505210743 | 49 | 39 | 0.0 | 1.0 | 0.00 | 0.76 | 0.76 | 88 | 1012.3 |
| 20260505210241 | 49 | 39 | 1.0 | 2.0 | 0.00 | 0.76 | 0.76 | 88 | 1012.3 |
| 20260505205738 | 49 | 39 | 1.0 | 2.0 | 0.00 | 0.76 | 0.76 | 89 | 1012.3 |
| 20260505205236 | 48 | 39 | 0.0 | 0.0 | 0.00 | 0.76 | 0.76 | 89 | 1012.2 |
| 20260505204732 | 49 | 39 | 1.0 | 2.0 | 0.00 | 0.76 | 0.76 | 90 | 1012.4 |
| 20260505204230 | 49 | 43 | 0.0 | 0.0 | 0.00 | 0.76 | 0.76 | 91 | 1012.5 |
| 20260505203727 | 48 | 43 | 0.0 | 0.0 | 0.00 | 0.76 | 0.76 | 91 | 1012.5 |
| 20260505203224 | 48 | 43 | 0.0 | 0.0 | 0.00 | 0.76 | 0.76 | 91 | 1012.5 |
| 20260505202720 | 48 | 43 | 1.0 | 1.0 | 0.00 | 0.76 | 0.76 | 91 | 1012.7 |
| 20260505202216 | 48 | 37 | 1.0 | 2.0 | 0.00 | 0.76 | 0.76 | 92 | 1012.5 |
| 20260505201713 | 48 | 48 | 1.0 | 2.0 | 0.00 | 0.76 | 0.76 | 92 | 1012.3 |
| 20260505201211 | 48 | 89 | 0.0 | 1.0 | 0.00 | 0.76 | 0.76 | 92 | 1012.4 |
| 20260505200708 | 48 | 89 | 0.0 | 1.0 | 0.00 | 0.76 | 0.76 | 91 | 1012.1 |
| 20260505200205 | 48 | 89 | 0.0 | 1.0 | 0.00 | 0.76 | 0.76 | 91 | 1012.2 |
| 20260505195701 | 48 | 98 | 0.0 | 0.0 | 0.00 | 0.76 | 0.76 | 91 | 1012.2 |
| 20260505195158 | 48 | 100 | 0.0 | 0.0 | 0.00 | 0.76 | 0.76 | 91 | 1012.3 |
| 20260505194655 | 48 | 100 | 0.0 | 0.0 | 0.00 | 0.76 | 0.76 | 91 | 1012.5 |
| 20260505194151 | 47 | 90 | 0.0 | 0.0 | 0.00 | 0.76 | 0.76 | 92 | 1012.5 |
| 20260505193648 | 48 | 89 | 0.0 | 0.0 | 0.00 | 0.76 | 0.76 | 92 | 1012.5 |
| 20260505193145 | 48 | 89 | 0.0 | 0.0 | 0.00 | 0.76 | 0.76 | 93 | 1012.3 |
| 20260505192644 | 48 | 89 | 0.0 | 0.0 | 0.00 | 0.76 | 0.76 | 93 | 1012.4 |
| 20260505192141 | 47 | 111 | 0.0 | 0.0 | 0.00 | 0.76 | 0.76 | 93 | 1012.4 |
| 20260505191639 | 48 | 112 | 0.0 | 0.0 | 0.00 | 0.76 | 0.76 | 93 | 1012.3 |
| 20260505191137 | 48 | 112 | 0.0 | 0.0 | 0.00 | 0.76 | 0.76 | 94 | 1012.3 |
| 20260505190633 | 47 | 112 | 0.0 | 0.0 | 0.00 | 0.76 | 0.76 | 94 | 1012.4 |
| 20260505190127 | 47 | 108 | 0.0 | 0.0 | 0.00 | 0.76 | 0.76 | 94 | 1012.1 |
| 20260505185625 | 47 | 99 | 0.0 | 0.0 | 0.00 | 0.76 | 0.76 | 95 | 1012.2 |
| 20260505185121 | 47 | 91 | 1.0 | 1.0 | 0.00 | 0.76 | 0.76 | 94 | 1012.5 |
| 20260505184617 | 47 | 74 | 0.0 | 0.0 | 0.00 | 0.76 | 0.76 | 95 | 1012.7 |
| 20260505184114 | 46 | 75 | 0.0 | 1.0 | 0.00 | 0.76 | 0.76 | 95 | 1012.7 |
| 20260505183611 | 47 | 84 | 0.0 | 1.0 | 0.00 | 0.76 | 0.76 | 95 | 1012.6 |
| 20260505183109 | 47 | 47 | 1.0 | 3.0 | 0.00 | 0.76 | 0.76 | 96 | 1012.6 |
| 20260505182605 | 47 | 100 | 0.0 | 2.0 | 0.00 | 0.76 | 0.76 | 96 | 1012.6 |
| 20260505182102 | 47 | 76 | 0.0 | 0.0 | 0.00 | 0.76 | 0.76 | 96 | 1012.9 |
| 20260505181558 | 46 | 75 | 0.0 | 0.0 | 0.00 | 0.76 | 0.76 | 96 | 1013.0 |
| 20260505181056 | 46 | 53 | 0.0 | 0.0 | 0.00 | 0.76 | 0.76 | 96 | 1013.1 |
| 20260505180551 | 46 | 64 | 0.0 | 0.0 | 0.00 | 0.76 | 0.76 | 97 | 1013.1 |
| 20260505180049 | 46 | 108 | 0.0 | 1.0 | 0.00 | 0.76 | 0.76 | 96 | 1012.9 |
| 20260505175544 | 46 | 39 | 0.0 | 2.0 | 0.00 | 0.76 | 0.76 | 96 | 1013.3 |
| 20260505175041 | 46 | 45 | 0.0 | 1.0 | 0.00 | 0.76 | 0.76 | 96 | 1013.5 |
| 20260505174538 | 47 | 9 | 0.0 | 1.0 | 0.00 | 0.76 | 0.76 | 96 | 1013.5 |
| 20260505174034 | 46 | 9 | 2.0 | 2.0 | 0.00 | 0.76 | 0.76 | 96 | 1013.1 |
| 20260505173531 | 46 | 57 | 1.0 | 1.0 | 0.00 | 0.76 | 0.76 | 96 | 1012.9 |
| 20260505173028 | 47 | 57 | 0.0 | 2.0 | 0.00 | 0.76 | 0.76 | 96 | 1013.2 |
| 20260505172526 | 47 | 76 | 0.0 | 0.0 | 0.00 | 0.76 | 0.76 | 96 | 1013.1 |
| 20260505172021 | 47 | 77 | 1.0 | 1.0 | 0.00 | 0.76 | 0.76 | 96 | 1013.3 |
| 20260505171517 | 46 | 126 | 0.0 | 2.0 | 0.00 | 0.76 | 0.76 | 96 | 1013.1 |
| 20260505171014 | 47 | 76 | 0.0 | 0.0 | 0.05 | 0.76 | 0.76 | 96 | 1013.0 |
| 20260505170511 | 47 | 70 | 0.0 | 1.0 | 0.05 | 0.76 | 0.76 | 96 | 1012.8 |
| 20260505170007 | 47 | 43 | 1.0 | 2.0 | 0.00 | 0.75 | 0.75 | 96 | 1012.6 |
| 20260505165502 | 47 | 69 | 0.0 | 2.0 | 0.07 | 0.75 | 0.75 | 97 | 1012.9 |
| 20260505164958 | 47 | 89 | 1.0 | 1.0 | 0.07 | 0.75 | 0.75 | 96 | 1012.9 |
| 20260505164454 | 47 | 76 | 0.0 | 0.0 | 0.00 | 0.74 | 0.74 | 97 | 1012.9 |
| 20260505163953 | 48 | 86 | 0.0 | 0.0 | 0.05 | 0.74 | 0.74 | 97 | 1013.0 |
| 20260505163450 | 48 | 100 | 0.0 | 1.0 | 0.05 | 0.74 | 0.74 | 97 | 1013.2 |
| 20260505162949 | 47 | 77 | 0.0 | 0.0 | 0.07 | 0.73 | 0.73 | 97 | 1013.5 |
| 20260505162440 | 48 | 76 | 0.0 | 2.0 | 0.12 | 0.73 | 0.73 | 97 | 1013.6 |
| 20260505161936 | 47 | 75 | 0.0 | 0.0 | 0.05 | 0.72 | 0.72 | 97 | 1013.1 |
| 20260505161433 | 48 | 74 | 0.0 | 1.0 | 0.07 | 0.71 | 0.71 | 97 | 1013.0 |
| 20260505160930 | 47 | 70 | 0.0 | 0.0 | 0.07 | 0.71 | 0.71 | 97 | 1013.1 |
| 20260505160428 | 47 | 70 | 0.0 | 0.0 | 0.00 | 0.70 | 0.70 | 97 | 1013.4 |
| 20260505152859 | 47 | 85 | 1.0 | 1.0 | 0.00 | 0.69 | 0.69 | 96 | 1012.9 |
| 20260505152356 | 47 | 54 | 0.0 | 1.0 | 0.00 | 0.69 | 0.69 | 95 | 1013.0 |
| 20260505151855 | 47 | 102 | 1.0 | 2.0 | 0.00 | 0.69 | 0.69 | 95 | 1012.9 |
| 20260505151353 | 48 | 59 | 0.0 | 1.0 | 0.05 | 0.69 | 0.69 | 95 | 1012.6 |
| 20260505150849 | 48 | 52 | 0.0 | 0.0 | 0.05 | 0.69 | 0.69 | 95 | 1012.6 |
| 20260505150341 | 48 | 46 | 1.0 | 1.0 | 0.07 | 0.68 | 0.68 | 95 | 1012.8 |
| 20260505140311 | 48 | 42 | 1.0 | 2.0 | 0.00 | 0.60 | 0.60 | 93 | 1012.6 |
| 20260505130234 | 48 | 79 | 0.0 | 0.0 | 0.00 | 0.57 | 0.57 | 93 | 1010.4 |
| 20260505124725 | 48 | 85 | 0.0 | 0.0 | 0.07 | 0.57 | 0.57 | 93 | 1010.2 |
| 20260505124222 | 48 | 84 | 0.0 | 0.0 | 0.00 | 0.56 | 0.56 | 93 | 1010.2 |
| 20260505123717 | 48 | 67 | 0.0 | 0.0 | 0.00 | 0.56 | 0.56 | 92 | 1010.2 |
| 20260505123214 | 49 | 67 | 0.0 | 0.0 | 0.00 | 0.56 | 0.56 | 92 | 1010.4 |
| 20260505122711 | 48 | 67 | 0.0 | 0.0 | 0.00 | 0.56 | 0.56 | 92 | 1010.2 |
| 20260505122208 | 48 | 67 | 0.0 | 0.0 | 0.00 | 0.56 | 0.56 | 92 | 1010.0 |
| 20260505121705 | 48 | 67 | 0.0 | 1.0 | 0.00 | 0.56 | 0.56 | 92 | 1010.2 |
| 20260505121201 | 48 | 66 | 0.0 | 1.0 | 0.00 | 0.56 | 0.56 | 91 | 1010.0 |
| 20260505120657 | 48 | 66 | 1.0 | 2.0 | 0.00 | 0.56 | 0.56 | 90 | 1009.7 |
| 20260505120154 | 48 | 65 | 0.0 | 0.0 | 0.05 | 0.56 | 0.56 | 89 | 1010.2 |
| 20260505115647 | 48 | 64 | 0.0 | 1.0 | 0.05 | 0.56 | 0.56 | 88 | 1010.4 |
| 20260505115146 | 49 | 68 | 0.0 | 0.0 | 0.00 | 0.55 | 0.55 | 87 | 1010.2 |
| 20260505114642 | 49 | 30 | 0.0 | 2.0 | 0.00 | 0.55 | 0.55 | 86 | 1009.9 |
| 20260505114139 | 49 | 65 | 0.0 | 2.0 | 0.00 | 0.55 | 0.55 | 87 | 1009.7 |
| 20260505113635 | 48 | 65 | 0.0 | 0.0 | 0.00 | 0.55 | 0.55 | 88 | 1010.0 |
| 20260505113132 | 48 | 65 | 1.0 | 2.0 | 0.00 | 0.55 | 0.55 | 90 | 1009.7 |
| 20260505112628 | 48 | 70 | 0.0 | 0.0 | 0.00 | 0.55 | 0.55 | 90 | 1009.6 |
| 20260505112126 | 48 | 70 | 0.0 | 0.0 | 0.00 | 0.55 | 0.55 | 90 | 1009.6 |
| 20260505111620 | 48 | 70 | 0.0 | 0.0 | 0.00 | 0.55 | 0.55 | 91 | 1009.5 |
| 20260505111116 | 48 | 70 | 0.0 | 0.0 | 0.00 | 0.55 | 0.55 | 91 | 1009.8 |
| 20260505110612 | 48 | 70 | 0.0 | 0.0 | 0.00 | 0.55 | 0.55 | 91 | 1009.9 |
| 20260505110109 | 48 | 69 | 0.0 | 0.0 | 0.00 | 0.55 | 0.55 | 91 | 1009.7 |
| 20260505102045 | 48 | 33 | 0.0 | 2.0 | 0.00 | 0.55 | 0.55 | 89 | 1009.8 |
| 20260505101543 | 48 | 70 | 0.0 | 2.0 | 0.00 | 0.55 | 0.55 | 90 | 1009.9 |
| 20260505101039 | 48 | 48 | 0.0 | 2.0 | 0.00 | 0.55 | 0.55 | 91 | 1009.8 |
| 20260505100536 | 48 | 43 | 1.0 | 1.0 | 0.00 | 0.55 | 0.55 | 91 | 1009.6 |
| 20260505100033 | 48 | 34 | 0.0 | 0.0 | 0.00 | 0.55 | 0.55 | 91 | 1010.0 |
| 20260505095529 | 47 | 26 | 0.0 | 1.0 | 0.00 | 0.55 | 0.55 | 92 | 1009.6 |
| 20260505095026 | 47 | 69 | 0.0 | 1.0 | 0.00 | 0.55 | 0.55 | 92 | 1009.6 |
| 20260505094522 | 47 | 75 | 1.0 | 2.0 | 0.00 | 0.55 | 0.55 | 92 | 1009.5 |
| 20260505094019 | 47 | 71 | 0.0 | 0.0 | 0.00 | 0.55 | 0.55 | 93 | 1009.4 |
| 20260505093515 | 47 | 76 | 0.0 | 2.0 | 0.00 | 0.55 | 0.55 | 92 | 1009.6 |
| 20260505093013 | 47 | 96 | 0.0 | 2.0 | 0.00 | 0.55 | 0.55 | 93 | 1009.3 |
| 20260505092510 | 47 | 123 | 1.0 | 2.0 | 0.00 | 0.55 | 0.55 | 94 | 1008.7 |
| 20260505092008 | 47 | 62 | 1.0 | 2.0 | 0.00 | 0.55 | 0.55 | 94 | 1008.7 |
| 20260505091505 | 47 | 25 | 2.0 | 2.0 | 0.00 | 0.55 | 0.55 | 94 | 1008.7 |
| 20260505091003 | 47 | 105 | 0.0 | 2.0 | 0.00 | 0.55 | 0.55 | 94 | 1008.6 |
| 20260505090501 | 47 | 91 | 2.0 | 3.0 | 0.00 | 0.55 | 0.55 | 94 | 1008.3 |
| 20260505085958 | 47 | 70 | 0.0 | 3.0 | 0.00 | 0.55 | 0.55 | 94 | 1008.1 |
| 20260505085456 | 47 | 29 | 2.0 | 7.0 | 0.00 | 0.55 | 0.55 | 94 | 1007.9 |
| 20260505084954 | 48 | 53 | 2.0 | 6.0 | 0.00 | 0.55 | 0.55 | 94 | 1007.8 |
| 20260505084452 | 47 | 306 | 6.0 | 7.0 | 0.12 | 0.55 | 0.55 | 94 | 1007.2 |
| 20260505083949 | 48 | 282 | 3.0 | 5.0 | 0.24 | 0.55 | 0.55 | 94 | 1005.1 |
| 20260505083446 | 48 | 57 | 1.0 | 6.0 | 0.24 | 0.53 | 0.53 | 94 | 1006.8 |
| 20260505082942 | 48 | 125 | 0.0 | 2.0 | 0.31 | 0.51 | 0.51 | 93 | 1008.4 |
| 20260505082438 | 48 | 26 | 1.0 | 3.0 | 0.31 | 0.49 | 0.49 | 93 | 1009.2 |
| 20260505081936 | 49 | 93 | 1.0 | 2.0 | 0.24 | 0.46 | 0.46 | 93 | 1009.3 |
| 20260505081432 | 49 | 85 | 0.0 | 2.0 | 0.24 | 0.44 | 0.44 | 92 | 1009.6 |
| 20260505080929 | 49 | 82 | 0.0 | 0.0 | 0.24 | 0.42 | 0.42 | 91 | 1009.9 |
| 20260505080425 | 50 | 81 | 0.0 | 1.0 | 0.31 | 0.40 | 0.40 | 90 | 1010.1 |
| 20260505075920 | 50 | 73 | 0.0 | 1.0 | 0.31 | 0.38 | 0.38 | 88 | 1010.1 |
| 20260505075418 | 51 | 61 | 0.0 | 0.0 | 0.19 | 0.34 | 0.34 | 84 | 1010.3 |
| 20260505074915 | 53 | 50 | 0.0 | 2.0 | 0.24 | 0.33 | 0.33 | 77 | 1010.1 |
| 20260505074412 | 54 | 353 | 3.0 | 5.0 | 0.12 | 0.31 | 0.31 | 70 | 1009.6 |
| 20260505073909 | 55 | 19 | 2.0 | 5.0 | 0.00 | 0.29 | 0.29 | 65 | 1009.5 |
| 20260505073407 | 56 | 295 | 6.0 | 7.0 | 0.00 | 0.29 | 0.29 | 60 | 1009.3 |
| 20260505072904 | 56 | 27 | 1.0 | 2.0 | 0.00 | 0.29 | 0.29 | 60 | 1008.7 |
| 20260505072400 | 56 | 24 | 1.0 | 3.0 | 0.00 | 0.29 | 0.29 | 59 | 1008.3 |
| 20260505071856 | 57 | 39 | 1.0 | 2.0 | 0.00 | 0.29 | 0.29 | 58 | 1007.8 |
| 20260505071353 | 57 | 100 | 0.0 | 3.0 | 0.00 | 0.29 | 0.29 | 61 | 1007.8 |
| 20260505070851 | 57 | 6 | 3.0 | 7.0 | 0.00 | 0.29 | 0.29 | 57 | 1007.8 |
| 20260505070347 | 57 | 26 | 0.0 | 2.0 | 0.00 | 0.29 | 0.29 | 58 | 1008.2 |
| 20260505065842 | 56 | 6 | 1.0 | 3.0 | 0.00 | 0.29 | 0.29 | 59 | 1008.2 |
| 20260505065339 | 55 | 238 | 3.0 | 6.0 | 0.00 | 0.29 | 0.29 | 62 | 1007.3 |
| 20260505064837 | 54 | 99 | 1.0 | 3.0 | 0.00 | 0.29 | 0.29 | 69 | 1006.8 |
| 20260505064333 | 54 | 22 | 0.0 | 3.0 | 0.00 | 0.29 | 0.29 | 74 | 1006.9 |
| 20260505063832 | 54 | 41 | 0.0 | 6.0 | 0.00 | 0.29 | 0.29 | 73 | 1006.8 |
| 20260505063327 | 54 | 30 | 5.0 | 7.0 | 0.00 | 0.29 | 0.29 | 76 | 1007.0 |
| 20260505062824 | 53 | 48 | 2.0 | 5.0 | 0.07 | 0.29 | 0.29 | 81 | 1006.7 |
| 20260505062322 | 53 | 40 | 1.0 | 9.0 | 0.07 | 0.29 | 0.29 | 87 | 1006.7 |
| 20260505061818 | 54 | 67 | 1.0 | 5.0 | 0.00 | 0.28 | 0.28 | 91 | 1006.4 |
| 20260505061316 | 54 | 39 | 0.0 | 0.0 | 0.00 | 0.28 | 0.28 | 93 | 1006.3 |
| 20260505060813 | 54 | 37 | 0.0 | 1.0 | 0.00 | 0.28 | 0.28 | 92 | 1006.3 |
| 20260505060310 | 55 | 83 | 0.0 | 1.0 | 0.00 | 0.28 | 0.28 | 92 | 1006.0 |
| 20260505055806 | 55 | 55 | 0.0 | 2.0 | 0.00 | 0.28 | 0.28 | 92 | 1005.8 |
| 20260505055303 | 55 | 19 | 0.0 | 1.0 | 0.00 | 0.28 | 0.28 | 92 | 1005.6 |
| 20260505054800 | 56 | 281 | 0.0 | 1.0 | 0.17 | 0.28 | 0.28 | 91 | 1005.5 |
| 20260505054257 | 56 | 281 | 0.0 | 1.0 | 0.47 | 0.28 | 0.28 | 90 | 1005.8 |
| 20260505053755 | 56 | 277 | 0.0 | 2.0 | 0.50 | 0.25 | 0.25 | 90 | 1005.8 |
| 20260505053252 | 58 | 121 | 1.0 | 1.0 | 0.47 | 0.20 | 0.20 | 90 | 1005.7 |
| 20260505052749 | 59 | 97 | 1.0 | 2.0 | 0.66 | 0.16 | 0.16 | 86 | 1006.5 |
| 20260505052246 | 60 | 69 | 2.0 | 3.0 | 0.73 | 0.12 | 0.12 | 81 | 1005.6 |
| 20260505051743 | 64 | 74 | 0.0 | 1.0 | 0.24 | 0.04 | 0.04 | 71 | 1005.5 |
| 20260505051241 | 66 | 0 | 2.0 | 3.0 | 0.00 | 0.00 | 0.00 | 59 | 1005.2 |
| 20260505050738 | 69 | 55 | 0.0 | 3.0 | 0.00 | 0.00 | 0.00 | 51 | 1004.8 |
| 20260505050237 | 70 | 32 | 3.0 | 3.0 | 0.00 | 0.00 | 0.00 | 50 | 1004.6 |
| 20260505041706 | 71 | 129 | 0.0 | 2.0 | 0.00 | 0.00 | 0.00 | 71 | 1003.6 |
| 20260505041203 | 71 | 142 | 1.0 | 3.0 | 0.00 | 0.00 | 0.00 | 71 | 1003.5 |
| 20260505040701 | 72 | 144 | 1.0 | 3.0 | 0.00 | 0.00 | 0.00 | 71 | 1003.7 |
| 20260505040158 | 71 | 160 | 4.0 | 5.0 | 0.00 | 0.00 | 0.00 | 71 | 1003.7 |
| 20260505035654 | 71 | 125 | 0.0 | 1.0 | 0.00 | 0.00 | 0.00 | 71 | 1003.8 |
| 20260505035150 | 71 | 134 | 1.0 | 2.0 | 0.00 | 0.00 | 0.00 | 71 | 1003.8 |
| 20260505034647 | 71 | 127 | 1.0 | 1.0 | 0.00 | 0.00 | 0.00 | 71 | 1003.7 |
| 20260505034145 | 71 | 125 | 1.0 | 1.0 | 0.00 | 0.00 | 0.00 | 72 | 1003.8 |
| 20260505033640 | 71 | 125 | 1.0 | 2.0 | 0.00 | 0.00 | 0.00 | 71 | 1004.0 |
| 20260505033139 | 71 | 125 | 0.0 | 2.0 | 0.00 | 0.00 | 0.00 | 72 | 1003.6 |
| 20260505032637 | 70 | 124 | 0.0 | 0.0 | 0.00 | 0.00 | 0.00 | 72 | 1003.7 |
| 20260505032133 | 70 | 124 | 0.0 | 0.0 | 0.00 | 0.00 | 0.00 | 73 | 1003.8 |
| 20260505031630 | 70 | 125 | 1.0 | 1.0 | 0.00 | 0.00 | 0.00 | 74 | 1003.5 |
| 20260505031126 | 70 | 125 | 0.0 | 0.0 | 0.00 | 0.00 | 0.00 | 73 | 1003.6 |
| 20260505030624 | 70 | 125 | 0.0 | 0.0 | 0.00 | 0.00 | 0.00 | 73 | 1003.7 |
| 20260505030119 | 70 | 125 | 0.0 | 0.0 | 0.00 | 0.00 | 0.00 | 73 | 1003.6 |
| 20260505025615 | 70 | 125 | 0.0 | 1.0 | 0.00 | 0.00 | 0.00 | 73 | 1003.6 |
| 20260505025114 | 68 | 115 | 0.0 | 0.0 | 0.00 | 0.00 | 0.00 | 76 | 1003.3 |
| 20260505024611 | 68 | 115 | 0.0 | 0.0 | 0.00 | 0.00 | 0.00 | 76 | 1003.5 |
| 20260505024108 | 69 | 115 | 0.0 | 0.0 | 0.00 | 0.00 | 0.00 | 76 | 1003.3 |
| 20260505023606 | 69 | 115 | 0.0 | 0.0 | 0.00 | 0.00 | 0.00 | 75 | 1003.0 |
| 20260505023103 | 69 | 115 | 0.0 | 0.0 | 0.00 | 0.00 | 0.00 | 75 | 1003.0 |
| 20260505022600 | 69 | 115 | 0.0 | 0.0 | 0.00 | 0.00 | 0.00 | 75 | 1002.7 |
| 20260505022057 | 69 | 115 | 0.0 | 0.0 | 0.00 | 0.00 | 0.00 | 74 | 1002.9 |
| 20260505021554 | 70 | 115 | 0.0 | 0.0 | 0.00 | 0.00 | 0.00 | 74 | 1002.7 |
| 20260505021051 | 70 | 115 | 0.0 | 0.0 | 0.00 | 0.00 | 0.00 | 73 | 1002.9 |
| 20260505020550 | 70 | 117 | 0.0 | 0.0 | 0.00 | 0.00 | 0.00 | 72 | 1002.6 |
| 20260505020048 | 71 | 118 | 0.0 | 0.0 | 0.00 | 0.00 | 0.00 | 70 | 1002.8 |
| 20260505015545 | 71 | 121 | 0.0 | 0.0 | 0.00 | 0.00 | 0.00 | 70 | 1002.4 |
| 20260505015041 | 71 | 125 | 0.0 | 0.0 | 0.00 | 0.00 | 0.00 | 69 | 1002.4 |
| 20260505014538 | 72 | 125 | 0.0 | 0.0 | 0.00 | 0.00 | 0.00 | 67 | 1002.5 |
| 20260505014035 | 72 | 125 | 0.0 | 0.0 | 0.00 | 0.00 | 0.00 | 66 | 1002.2 |
| 20260505013532 | 73 | 125 | 0.0 | 0.0 | 0.00 | 0.00 | 0.00 | 65 | 1002.1 |
| 20260505013030 | 73 | 125 | 0.0 | 0.0 | 0.00 | 0.00 | 0.00 | 65 | 1002.1 |
| 20260505012528 | 73 | 125 | 0.0 | 0.0 | 0.00 | 0.00 | 0.00 | 65 | 1001.9 |
| 20260505012025 | 73 | 125 | 0.0 | 0.0 | 0.00 | 0.00 | 0.00 | 64 | 1002.0 |
| 20260505011520 | 74 | 125 | 0.0 | 0.0 | 0.00 | 0.00 | 0.00 | 63 | 1002.1 |
| 20260505011017 | 75 | 125 | 0.0 | 0.0 | 0.00 | 0.00 | 0.00 | 61 | 1002.0 |
| 20260505010512 | 75 | 125 | 0.0 | 0.0 | 0.00 | 0.00 | 0.00 | 60 | 1002.1 |
| 20260505010010 | 76 | 125 | 0.0 | 0.0 | 0.00 | 0.00 | 0.00 | 59 | 1001.9 |
| 20260505005506 | 76 | 126 | 0.0 | 0.0 | 0.00 | 0.00 | 0.00 | 58 | 1001.9 |
| 20260505005004 | 76 | 126 | 0.0 | 0.0 | 0.00 | 0.00 | 0.00 | 57 | 1001.8 |
| 20260505004501 | 77 | 126 | 0.0 | 0.0 | 0.00 | 0.00 | 0.00 | 56 | 1001.7 |
| 20260505003957 | 78 | 126 | 0.0 | 0.0 | 0.00 | 0.00 | 0.00 | 55 | 1001.7 |
| 20260505003455 | 79 | 126 | 0.0 | 0.0 | 0.00 | 0.00 | 0.00 | 53 | 1001.6 |
| 20260505002950 | 79 | 126 | 0.0 | 0.0 | 0.00 | 0.00 | 0.00 | 52 | 1001.5 |
| 20260505002446 | 80 | 126 | 0.0 | 0.0 | 0.00 | 0.00 | 0.00 | 51 | 1001.5 |
| 20260505001945 | 80 | 127 | 0.0 | 0.0 | 0.00 | 0.00 | 0.00 | 50 | 1001.5 |
| 20260505001442 | 79 | 127 | 0.0 | 0.0 | 0.00 | 0.00 | 0.00 | 50 | 1001.4 |
| 20260505000939 | 79 | 127 | 0.0 | 0.0 | 0.00 | 0.00 | 0.00 | 50 | 1001.5 |
| 20260505000437 | 80 | 136 | 1.0 | 1.0 | 0.00 | 0.00 | 0.00 | 49 | 1001.5 |
| 20260504235934 | 80 | 132 | 1.0 | 2.0 | 0.00 | 0.00 | 0.00 | 48 | 1001.4 |
| 20260504235431 | 80 | 135 | 0.0 | 2.0 | 0.00 | 0.00 | 0.00 | 48 | 1001.5 |
| 20260504234927 | 80 | 148 | 2.0 | 5.0 | 0.00 | 0.00 | 0.00 | 47 | 1001.4 |
| 20260504234425 | 80 | 144 | 1.0 | 6.0 | 0.00 | 0.00 | 0.00 | 47 | 1001.4 |
| 20260504233921 | 80 | 139 | 2.0 | 3.0 | 0.00 | 0.00 | 0.00 | 47 | 1001.6 |
| 20260504233417 | 80 | 128 | 1.0 | 2.0 | 0.00 | 0.00 | 0.00 | 48 | 1001.5 |
| 20260504232914 | 81 | 139 | 2.0 | 3.0 | 0.00 | 0.00 | 0.00 | 46 | 1001.4 |
| 20260504232411 | 81 | 133 | 0.0 | 2.0 | 0.00 | 0.00 | 0.00 | 46 | 1001.4 |
| 20260504231908 | 81 | 153 | 3.0 | 8.0 | 0.00 | 0.00 | 0.00 | 45 | 1001.5 |
| 20260504231404 | 81 | 168 | 3.0 | 6.0 | 0.00 | 0.00 | 0.00 | 46 | 1001.6 |
| 20260504230901 | 82 | 144 | 3.0 | 5.0 | 0.00 | 0.00 | 0.00 | 46 | 1001.6 |
| 20260504230358 | 81 | 15 | 1.0 | 3.0 | 0.00 | 0.00 | 0.00 | 45 | 1001.4 |
| 20260504225857 | 81 | 263 | 3.0 | 5.0 | 0.00 | 0.00 | 0.00 | 44 | 1001.6 |
| 20260504225353 | 81 | 184 | 3.0 | 3.0 | 0.00 | 0.00 | 0.00 | 44 | 1001.6 |
| 20260504224851 | 81 | 147 | 3.0 | 5.0 | 0.00 | 0.00 | 0.00 | 44 | 1001.6 |
| 20260504224347 | 80 | 147 | 1.0 | 2.0 | 0.00 | 0.00 | 0.00 | 45 | 1001.7 |
| 20260504223844 | 80 | 147 | 1.0 | 5.0 | 0.00 | 0.00 | 0.00 | 45 | 1001.5 |
| 20260504223339 | 80 | 135 | 1.0 | 5.0 | 0.00 | 0.00 | 0.00 | 45 | 1001.7 |
| 20260504222836 | 80 | 149 | 2.0 | 3.0 | 0.00 | 0.00 | 0.00 | 46 | 1001.7 |
| 20260504222333 | 80 | 139 | 1.0 | 3.0 | 0.00 | 0.00 | 0.00 | 45 | 1001.8 |